QPF
0.00 0.00 0.01 0.01 0.02 0.03 0.03 0.03 0.05 0.06 0.05 0.02 0.02 0.03 0.04 0.04 0.04 0.05 0.07 0.08 0.09 0.09 0.09 0.09 0.11 0.11 0.14 0.18 0.21 0.24 0.24 0.22 0.18 0.14 0.10 0.08 0.08 0.06 0.04 0.04 0.05 0.05 0.05
0.00 0.00 0.00 0.00 0.00 0.00 0.01 0.01 0.02 0.02 0.02 0.02 0.04 0.05 0.04 0.04 0.04 0.07 0.08 0.09 0.08 0.10 0.10 0.10 0.11 0.12 0.13 0.14 0.15 0.18 0.20 0.22 0.20 0.17 0.14 0.11 0.10 0.10 0.08 0.06 0.05 0.05 0.06
0.00 0.00 0.00 0.00 0.00 0.00 0.00 0.00 0.01 0.01 0.02 0.03 0.04 0.05 0.05 0.05 0.04 0.04 0.06 0.07 0.09 0.10 0.10 0.11 0.10 0.11 0.12 0.13 0.12 0.13 0.16 0.20 0.23 0.22 0.21 0.17 0.14 0.12 0.11 0.08 0.07 0.07 0.06
0.00 0.00 0.00 0.00 0.00 0.00 0.00 0.00 0.00 0.00 0.01 0.03 0.05 0.04 0.03 0.03 0.04 0.04 0.04 0.05 0.07 0.09 0.11 0.11 0.10 0.09 0.11 0.12 0.11 0.12 0.12 0.14 0.17 0.20 0.22 0.22 0.19 0.16 0.13 0.11 0.11 0.10 0.09
0.00 0.00 0.00 0.00 0.00 0.00 0.00 0.00 0.00 0.00 0.01 0.02 0.03 0.02 0.02 0.02 0.02 0.03 0.04 0.04 0.05 0.08 0.10 0.10 0.10 0.09 0.09 0.11 0.11 0.10 0.10 0.11 0.13 0.16 0.18 0.20 0.19 0.17 0.14 0.12 0.12 0.13 0.14
0.00 0.00 0.00 0.00 0.00 0.00 0.00 0.00 0.00 0.00 0.01 0.02 0.01 0.01 0.02 0.02 0.03 0.03 0.03 0.03 0.03 0.05 0.08 0.10 0.12 0.11 0.09 0.09 0.10 0.09 0.09 0.11 0.12 0.13 0.15 0.16 0.15 0.16 0.14 0.13 0.14 0.13 0.14
0.00 0.00 0.00 0.00 0.00 0.00 0.00 0.00 0.00 0.00 0.00 0.00 0.00 0.01 0.02 0.03 0.03 0.03 0.02 0.03 0.03 0.03 0.05 0.07 0.09 0.10 0.09 0.09 0.09 0.09 0.08 0.08 0.12 0.13 0.14 0.15 0.15 0.16 0.19 0.18 0.16 0.15 0.13
0.00 0.00 0.00 0.00 0.00 0.00 0.00 0.00 0.00 0.00 0.00 0.00 0.00 0.00 0.01 0.02 0.02 0.02 0.01 0.02 0.01 0.02 0.03 0.04 0.06 0.07 0.08 0.07 0.07 0.07 0.07 0.07 0.08 0.09 0.10 0.12 0.15 0.17 0.19 0.20 0.21 0.20 0.17
0.00 0.00 0.00 0.00 0.00 0.00 0.00 0.00 0.00 0.00 0.00 0.00 0.00 0.00 0.00 0.00 0.01 0.01 0.01 0.01 0.01 0.01 0.02 0.03 0.03 0.03 0.05 0.07 0.07 0.06 0.07 0.08 0.09 0.09 0.09 0.09 0.12 0.17 0.18 0.17 0.17 0.18 0.19
0.00 0.00 0.00 0.00 0.00 0.00 0.00 0.00 0.00 0.00 0.00 0.00 0.00 0.00 0.00 0.00 0.00 0.01 0.01 0.01 0.01 0.04 0.05 0.04 0.03 0.02 0.03 0.05 0.07 0.08 0.08 0.07 0.07 0.09 0.08 0.07 0.08 0.12 0.15 0.16 0.15 0.14 0.14
0.00 0.00 0.00 0.00 0.00 0.00 0.00 0.00 0.00 0.00 0.00 0.00 0.00 0.00 0.00 0.00 0.00 0.00 0.01 0.01 0.02 0.05 0.05 0.03 0.02 0.02 0.02 0.02 0.03 0.05 0.06 0.06 0.06 0.07 0.07 0.06 0.06 0.09 0.11 0.13 0.15 0.13 0.11
0.00 0.00 0.00 0.00 0.00 0.00 0.00 0.00 0.00 0.00 0.00 0.00 0.00 0.00 0.00 0.00 0.00 0.00 0.01 0.01 0.02 0.03 0.04 0.02 0.02 0.03 0.03 0.02 0.02 0.04 0.04 0.03 0.04 0.04 0.06 0.07 0.06 0.07 0.09 0.11 0.12 0.11 0.08
0.00 0.00 0.00 0.00 0.00 0.00 0.00 0.00 0.00 0.00 0.00 0.00 0.00 0.00 0.00 0.00 0.00 0.00 0.00 0.01 0.02 0.01 0.01 0.02 0.01 0.01 0.02 0.02 0.02 0.03 0.03 0.03 0.03 0.04 0.05 0.06 0.07 0.07 0.07 0.08 0.08 0.07 0.05
0.00 0.00 0.00 0.00 0.00 0.00 0.00 0.00 0.00 0.00 0.00 0.00 0.00 0.00 0.00 0.00 0.00 0.00 0.00 0.00 0.01 0.01 0.01 0.01 0.01 0.02 0.02 0.02 0.02 0.02 0.03 0.05 0.04 0.04 0.04 0.04 0.05 0.05 0.06 0.05 0.05 0.04 0.03
0.00 0.00 0.00 0.00 0.00 0.00 0.00 0.00 0.00 0.00 0.00 0.00 0.00 0.00 0.00 0.00 0.00 0.00 0.00 0.00 0.00 0.00 0.00 0.01 0.03 0.03 0.03 0.02 0.02 0.02 0.02 0.03 0.05 0.04 0.04 0.03 0.03 0.04 0.04 0.04 0.03 0.03 0.03
0.00 0.00 0.00 0.00 0.00 0.00 0.00 0.00 0.00 0.00 0.00 0.00 0.00 0.00 0.00 0.00 0.00 0.00 0.00 0.00 0.00 0.00 0.01 0.01 0.03 0.03 0.02 0.01 0.01 0.01 0.01 0.02 0.03 0.03 0.03 0.03 0.02 0.02 0.03 0.03 0.03 0.02 0.02
0.00 0.00 0.00 0.00 0.00 0.00 0.00 0.00 0.00 0.00 0.00 0.00 0.00 0.00 0.00 0.00 0.00 0.00 0.00 0.00 0.00 0.00 0.00 0.00 0.01 0.01 0.01 0.00 0.01 0.01 0.01 0.02 0.02 0.03 0.03 0.03 0.03 0.02 0.02 0.03 0.02 0.02 0.01
0.00 0.00 0.00 0.00 0.00 0.00 0.00 0.00 0.00 0.00 0.00 0.00 0.00 0.00 0.00 0.00 0.00 0.00 0.00 0.00 0.00 0.00 0.00 0.00 0.00 0.00 0.00 0.01 0.01 0.01 0.01 0.01 0.02 0.04 0.02 0.02 0.03 0.02 0.02 0.03 0.03 0.02 0.01
0.00 0.00 0.00 0.00 0.00 0.00 0.00 0.00 0.00 0.00 0.00 0.00 0.00 0.00 0.00 0.00 0.00 0.00 0.00 0.00 0.00 0.00 0.00 0.00 0.00 0.00 0.00 0.01 0.01 0.00 0.00 0.00 0.01 0.02 0.01 0.01 0.02 0.01 0.01 0.01 0.02 0.02 0.01
0.00 0.00 0.00 0.00 0.00 0.00 0.00 0.00 0.00 0.00 0.00 0.00 0.00 0.00 0.00 0.00 0.00 0.00 0.00 0.00 0.00 0.00 0.00 0.00 0.00 0.00 0.00 0.00 0.00 0.00 0.00 0.00 0.00 0.00 0.00 0.01 0.01 0.01 0.01 0.01 0.01 0.01 0.01
0.00 0.00 0.00 0.00 0.00 0.00 0.00 0.00 0.00 0.00 0.00 0.00 0.00 0.00 0.00 0.00 0.00 0.00 0.00 0.00 0.00 0.00 0.00 0.00 0.00 0.00 0.00 0.00 0.00 0.00 0.00 0.00 0.00 0.00 0.00 0.00 0.00 0.00 0.00 0.01 0.01 0.02 0.02
0.00 0.00 0.00 0.00 0.00 0.00 0.00 0.00 0.00 0.00 0.00 0.00 0.00 0.00 0.00 0.00 0.00 0.00 0.00 0.00 0.00 0.00 0.00 0.00 0.00 0.00 0.00 0.00 0.00 0.00 0.00 0.00 0.00 0.00 0.00 0.00 0.00 0.00 0.00 0.00 0.00 0.01 0.01
0.00 0.00 0.00 0.00 0.00 0.00 0.00 0.00 0.00 0.00 0.00 0.00 0.00 0.00 0.00 0.00 0.00 0.00 0.00 0.00 0.00 0.00 0.00 0.00 0.00 0.00 0.00 0.00 0.00 0.00 0.00 0.00 0.00 0.00 0.00 0.00 0.00 0.00 0.00 0.00 0.00 0.00 0.01
0.00 0.00 0.00 0.00 0.00 0.00 0.00 0.00 0.00 0.00 0.00 0.00 0.00 0.00 0.00 0.00 0.00 0.00 0.00 0.00 0.00 0.00 0.00 0.00 0.00 0.00 0.00 0.00 0.00 0.00 0.00 0.00 0.00 0.00 0.00 0.00 0.00 0.00 0.00 0.00 0.00 0.00 0.00
0.00 0.00 0.00 0.00 0.00 0.00 0.00 0.00 0.00 0.00 0.00 0.00 0.00 0.00 0.00 0.00 0.00 0.00 0.00 0.00 0.00 0.00 0.00 0.00 0.00 0.00 0.00 0.00 0.00 0.00 0.00 0.00 0.00 0.00 0.00 0.00 0.00 0.00 0.00 0.00 0.00 0.00 0.00
0.00 0.00 0.00 0.00 0.00 0.00 0.00 0.00 0.00 0.00 0.00 0.00 0.00 0.00 0.00 0.00 0.00 0.00 0.00 0.00 0.00 0.00 0.00 0.00 0.00 0.00 0.00 0.00 0.00 0.00 0.00 0.00 0.00 0.00 0.00 0.00 0.00 0.00 0.00 0.00 0.00 0.00 0.00
MSLP
1016.73 1016.64 1016.49 1016.26 1015.95 1015.57 1015.16 1014.74 1014.33 1013.95 1013.60 1013.27 1012.95 1012.61 1012.23 1011.82 1011.38 1010.92 1010.48 1010.09 1009.77 1009.56 1009.47 1009.48 1009.59 1009.77 1009.98 1010.20 1010.40 1010.56 1010.69 1010.77 1010.82 1010.86 1010.92 1011.00 1011.13 1011.32 1011.58 1011.92 1012.32 1012.77 1013.26
1016.55 1016.51 1016.40 1016.21 1015.94 1015.60 1015.21 1014.79 1014.38 1013.98 1013.60 1013.24 1012.89 1012.52 1012.14 1011.72 1011.28 1010.83 1010.38 1009.97 1009.63 1009.37 1009.20 1009.14 1009.16 1009.25 1009.40 1009.57 1009.76 1009.93 1010.09 1010.23 1010.35 1010.47 1010.60 1010.75 1010.94 1011.17 1011.46 1011.79 1012.18 1012.61 1013.07
1016.34 1016.35 1016.30 1016.16 1015.94 1015.65 1015.29 1014.89 1014.48 1014.07 1013.67 1013.29 1012.91 1012.52 1012.12 1011.70 1011.26 1010.81 1010.37 1009.95 1009.59 1009.30 1009.08 1008.94 1008.89 1008.90 1008.98 1009.09 1009.23 1009.39 1009.55 1009.72 1009.89 1010.06 1010.25 1010.46 1010.70 1010.97 1011.29 1011.64 1012.04 1012.46 1012.90
1016.12 1016.18 1016.18 1016.09 1015.93 1015.68 1015.36 1015.00 1014.60 1014.20 1013.79 1013.39 1013.00 1012.60 1012.19 1011.77 1011.33 1010.90 1010.47 1010.06 1009.68 1009.36 1009.11 1008.92 1008.79 1008.73 1008.73 1008.77 1008.85 1008.96 1009.10 1009.25 1009.42 1009.61 1009.83 1010.07 1010.35 1010.66 1011.01 1011.39 1011.81 1012.25 1012.71
1015.89 1015.99 1016.03 1015.99 1015.87 1015.66 1015.39 1015.06 1014.69 1014.31 1013.91 1013.52 1013.12 1012.72 1012.32 1011.91 1011.49 1011.07 1010.66 1010.26 1009.89 1009.56 1009.28 1009.04 1008.86 1008.73 1008.64 1008.61 1008.61 1008.65 1008.72 1008.83 1008.97 1009.14 1009.34 1009.59 1009.87 1010.20 1010.57 1010.99 1011.44 1011.93 1012.42
1015.64 1015.78 1015.85 1015.84 1015.75 1015.59 1015.35 1015.05 1014.72 1014.36 1013.98 1013.61 1013.23 1012.85 1012.46 1012.07 1011.68 1011.29 1010.91 1010.53 1010.17 1009.84 1009.54 1009.27 1009.03 1008.84 1008.68 1008.57 1008.49 1008.44 1008.43 1008.47 1008.54 1008.65 1008.81 1009.03 1009.29 1009.62 1010.00 1010.44 1010.94 1011.47 1012.03
1015.40 1015.54 1015.63 1015.64 1015.57 1015.43 1015.21 1014.95 1014.64 1014.31 1013.97 1013.62 1013.27 1012.93 1012.58 1012.22 1011.87 1011.51 1011.16 1010.80 1010.46 1010.13 1009.82 1009.52 1009.25 1009.01 1008.79 1008.61 1008.45 1008.32 1008.23 1008.18 1008.17 1008.21 1008.30 1008.46 1008.68 1008.98 1009.36 1009.81 1010.33 1010.91 1011.53
1015.15 1015.30 1015.39 1015.40 1015.33 1015.19 1014.99 1014.74 1014.46 1014.16 1013.86 1013.55 1013.24 1012.93 1012.62 1012.31 1011.99 1011.67 1011.35 1011.02 1010.69 1010.37 1010.05 1009.75 1009.46 1009.18 1008.92 1008.68 1008.47 1008.28 1008.12 1008.00 1007.91 1007.87 1007.89 1007.98 1008.15 1008.40 1008.74 1009.18 1009.72 1010.33 1011.02
1014.88 1015.03 1015.11 1015.11 1015.03 1014.89 1014.70 1014.46 1014.20 1013.93 1013.66 1013.38 1013.12 1012.85 1012.59 1012.31 1012.04 1011.75 1011.45 1011.14 1010.83 1010.51 1010.20 1009.89 1009.59 1009.30 1009.03 1008.77 1008.53 1008.31 1008.11 1007.94 1007.80 1007.71 1007.66 1007.69 1007.79 1007.99 1008.29 1008.70 1009.22 1009.85 1010.56
1014.60 1014.73 1014.79 1014.78 1014.70 1014.55 1014.36 1014.14 1013.89 1013.65 1013.40 1013.17 1012.94 1012.71 1012.49 1012.25 1012.01 1011.74 1011.47 1011.17 1010.87 1010.56 1010.25 1009.94 1009.64 1009.36 1009.09 1008.84 1008.61 1008.40 1008.20 1008.02 1007.87 1007.74 1007.66 1007.64 1007.69 1007.84 1008.09 1008.45 1008.94 1009.54 1010.26
1014.28 1014.39 1014.44 1014.42 1014.32 1014.18 1013.99 1013.78 1013.56 1013.34 1013.13 1012.93 1012.74 1012.55 1012.36 1012.15 1011.94 1011.69 1011.43 1011.15 1010.85 1010.54 1010.23 1009.93 1009.64 1009.37 1009.13 1008.91 1008.71 1008.53 1008.37 1008.22 1008.09 1007.97 1007.89 1007.85 1007.87 1007.98 1008.18 1008.49 1008.92 1009.48 1010.15
1013.91 1014.00 1014.03 1014.00 1013.90 1013.76 1013.59 1013.40 1013.21 1013.02 1012.85 1012.69 1012.54 1012.39 1012.23 1012.06 1011.86 1011.64 1011.38 1011.10 1010.80 1010.49 1010.18 1009.88 1009.61 1009.36 1009.14 1008.96 1008.81 1008.69 1008.59 1008.50 1008.42 1008.35 1008.29 1008.27 1008.29 1008.37 1008.53 1008.79 1009.16 1009.65 1010.25
1013.49 1013.55 1013.56 1013.51 1013.42 1013.29 1013.14 1012.98 1012.83 1012.68 1012.55 1012.44 1012.34 1012.23 1012.11 1011.97 1011.80 1011.60 1011.36 1011.08 1010.78 1010.47 1010.16 1009.86 1009.58 1009.34 1009.15 1009.01 1008.91 1008.84 1008.81 1008.79 1008.78 1008.77 1008.78 1008.79 1008.84 1008.92 1009.06 1009.28 1009.59 1010.00 1010.51
1013.03 1013.04 1013.01 1012.95 1012.85 1012.74 1012.61 1012.49 1012.38 1012.29 1012.21 1012.15 1012.09 1012.04 1011.97 1011.87 1011.74 1011.57 1011.35 1011.09 1010.80 1010.48 1010.17 1009.86 1009.59 1009.35 1009.17 1009.04 1008.97 1008.95 1008.97 1009.02 1009.08 1009.15 1009.22 1009.30 1009.39 1009.50 1009.64 1009.84 1010.10 1010.44 1010.86
1012.54 1012.48 1012.40 1012.30 1012.20 1012.09 1011.98 1011.89 1011.83 1011.78 1011.75 1011.75 1011.75 1011.75 1011.74 1011.70 1011.62 1011.50 1011.32 1011.09 1010.81 1010.51 1010.19 1009.88 1009.60 1009.36 1009.17 1009.05 1008.99 1008.99 1009.04 1009.14 1009.25 1009.39 1009.53 1009.66 1009.81 1009.96 1010.13 1010.33 1010.57 1010.86 1011.21
1012.06 1011.90 1011.75 1011.60 1011.47 1011.34 1011.24 1011.17 1011.13 1011.11 1011.13 1011.18 1011.24 1011.30 1011.35 1011.37 1011.35 1011.29 1011.16 1010.98 1010.75 1010.47 1010.17 1009.87 1009.58 1009.32 1009.12 1008.98 1008.91 1008.91 1008.98 1009.09 1009.24 1009.42 1009.61 1009.81 1010.01 1010.21 1010.42 1010.65 1010.89 1011.16 1011.46
1011.64 1011.37 1011.13 1010.91 1010.71 1010.55 1010.42 1010.34 1010.30 1010.29 1010.33 1010.40 1010.50 1010.61 1010.71 1010.80 1010.85 1010.85 1010.80 1010.68 1010.51 1010.28 1010.01 1009.73 1009.45 1009.19 1008.98 1008.83 1008.74 1008.72 1008.78 1008.89 1009.05 1009.25 1009.48 1009.72 1009.97 1010.22 1010.47 1010.73 1011.00 1011.28 1011.56
1011.34 1010.95 1010.60 1010.29 1010.01 1009.78 1009.60 1009.47 1009.39 1009.36 1009.38 1009.45 1009.55 1009.68 1009.82 1009.95 1010.06 1010.13 1010.15 1010.10 1010.00 1009.84 1009.63 1009.39 1009.14 1008.91 1008.70 1008.54 1008.45 1008.42 1008.46 1008.56 1008.72 1008.92 1009.16 1009.43 1009.71 1010.00 1010.29 1010.59 1010.89 1011.19 1011.49
1011.21 1010.71 1010.25 1009.84 1009.46 1009.14 1008.87 1008.66 1008.50 1008.40 1008.36 1008.38 1008.46 1008.57 1008.71 1008.85 1008.99 1009.11 1009.19 1009.22 1009.18 1009.10 1008.97 1008.80 1008.61 1008.42 1008.26 1008.13 1008.05 1008.02 1008.06 1008.16 1008.31 1008.51 1008.74 1009.01 1009.30 1009.61 1009.93 1010.26 1010.59 1010.92 1011.25
1011.29 1010.70 1010.15 1009.63 1009.15 1008.72 1008.34 1008.02 1007.75 1007.55 1007.41 1007.34 1007.34 1007.39 1007.48 1007.60 1007.74 1007.86 1007.98 1008.05 1008.08 1008.07 1008.02 1007.94 1007.84 1007.73 1007.64 1007.57 1007.54 1007.55 1007.61 1007.72 1007.88 1008.07 1008.30 1008.56 1008.84 1009.15 1009.47 1009.81 1010.16 1010.52 1010.87
1011.58 1010.93 1010.31 1009.71 1009.14 1008.61 1008.11 1007.67 1007.27 1006.94 1006.67 1006.47 1006.35 1006.29 1006.30 1006.34 1006.43 1006.52 1006.62 1006.71 1006.78 1006.83 1006.85 1006.86 1006.85 1006.85 1006.86 1006.88 1006.94 1007.03 1007.14 1007.29 1007.47 1007.67 1007.89 1008.14 1008.40 1008.69 1008.99 1009.32 1009.67 1010.03 1010.40
1012.05 1011.38 1010.72 1010.07 1009.44 1008.82 1008.22 1007.66 1007.14 1006.67 1006.26 1005.92 1005.65 1005.46 1005.33 1005.27 1005.25 1005.26 1005.30 1005.36 1005.42 1005.49 1005.56 1005.63 1005.72 1005.82 1005.95 1006.09 1006.26 1006.45 1006.66 1006.87 1007.10 1007.32 1007.55 1007.78 1008.02 1008.27 1008.55 1008.84 1009.17 1009.51 1009.88
1012.62 1011.98 1011.32 1010.66 1009.99 1009.32 1008.65 1008.00 1007.38 1006.79 1006.25 1005.77 1005.36 1005.02 1004.74 1004.53 1004.37 1004.26 1004.19 1004.16 1004.17 1004.20 1004.28 1004.38 1004.53 1004.72 1004.95 1005.22 1005.51 1005.81 1006.13 1006.43 1006.73 1007.00 1007.25 1007.47 1007.69 1007.91 1008.15 1008.40 1008.68 1009.00 1009.35
1013.20 1012.60 1011.99 1011.35 1010.68 1010.00 1009.31 1008.61 1007.92 1007.26 1006.62 1006.04 1005.50 1005.02 1004.59 1004.22 1003.90 1003.64 1003.42 1003.26 1003.15 1003.10 1003.12 1003.21 1003.37 1003.61 1003.91 1004.27 1004.67 1005.09 1005.52 1005.92 1006.30 1006.63 1006.92 1007.16 1007.37 1007.57 1007.76 1007.98 1008.22 1008.50 1008.82
1013.68 1013.15 1012.59 1012.00 1011.38 1010.73 1010.05 1009.35 1008.66 1007.96 1007.29 1006.63 1006.01 1005.42 1004.87 1004.35 1003.87 1003.43 1003.04 1002.70 1002.44 1002.25 1002.16 1002.18 1002.30 1002.52 1002.85 1003.26 1003.74 1004.25 1004.77 1005.27 1005.73 1006.14 1006.48 1006.76 1006.98 1007.18 1007.35 1007.54 1007.75 1007.99 1008.29
1013.98 1013.52 1013.03 1012.51 1011.94 1011.35 1010.72 1010.08 1009.42 1008.75 1008.08 1007.42 1006.76 1006.10 1005.46 1004.82 1004.19 1003.59 1003.01 1002.49 1002.03 1001.67 1001.42 1001.30 1001.32 1001.48 1001.77 1002.19 1002.69 1003.26 1003.85 1004.43 1004.97 1005.45 1005.86 1006.19 1006.46 1006.67 1006.86 1007.04 1007.24 1007.47 1007.74
Thickness
5657 5654 5651 5648 5646 5644 5642 5640 5640 5640 5641 5641 5642 5644 5645 5647 5650 5652 5654 5657 5661 5666 5671 5675 5679 5682 5685 5688 5691 5692 5694 5695 5694 5698 5702 5706 5708 5710 5711 5712 5714 5713 5711
5659 5656 5652 5649 5647 5644 5642 5639 5639 5638 5637 5637 5638 5638 5639 5640 5643 5645 5647 5650 5654 5658 5663 5669 5673 5677 5679 5683 5684 5686 5688 5690 5691 5691 5694 5696 5700 5703 5704 5705 5706 5706 5706
5661 5658 5655 5652 5648 5645 5642 5639 5638 5636 5635 5634 5634 5633 5634 5635 5637 5639 5641 5644 5648 5651 5657 5662 5667 5670 5673 5677 5679 5681 5683 5685 5686 5687 5687 5689 5691 5694 5695 5696 5697 5698 5697
5664 5660 5656 5653 5649 5646 5643 5640 5638 5636 5634 5632 5631 5630 5630 5631 5632 5634 5637 5640 5643 5647 5651 5656 5660 5664 5667 5670 5673 5676 5677 5678 5680 5681 5682 5682 5683 5686 5687 5686 5686 5687 5688
5667 5663 5659 5656 5652 5648 5645 5641 5639 5636 5634 5631 5629 5628 5627 5627 5628 5629 5632 5636 5639 5643 5646 5651 5654 5656 5658 5662 5667 5670 5672 5673 5673 5674 5675 5676 5676 5677 5679 5681 5678 5677 5677
5670 5665 5660 5657 5653 5649 5646 5642 5639 5636 5634 5631 5628 5626 5625 5624 5622 5624 5627 5631 5635 5637 5640 5645 5648 5650 5651 5654 5657 5661 5665 5667 5668 5669 5670 5671 5672 5674 5674 5674 5672 5670 5667
5672 5668 5663 5659 5655 5651 5648 5644 5640 5638 5634 5631 5628 5626 5624 5622 5620 5622 5624 5629 5631 5633 5636 5639 5642 5644 5647 5651 5652 5654 5658 5659 5661 5665 5665 5667 5668 5669 5669 5667 5667 5666 5664
5675 5670 5665 5661 5657 5653 5649 5645 5643 5640 5636 5632 5629 5627 5625 5623 5620 5621 5623 5628 5629 5630 5631 5633 5636 5639 5641 5644 5648 5651 5654 5655 5657 5659 5661 5663 5663 5664 5665 5663 5661 5658 5655
5677 5673 5669 5664 5660 5656 5652 5648 5645 5642 5639 5635 5632 5629 5627 5626 5622 5621 5622 5626 5628 5628 5629 5631 5633 5635 5634 5637 5642 5644 5646 5647 5648 5650 5653 5655 5655 5656 5657 5655 5652 5650 5647
5680 5676 5672 5667 5662 5659 5656 5652 5648 5644 5641 5639 5636 5633 5631 5629 5624 5623 5622 5628 5628 5628 5629 5630 5628 5630 5631 5633 5638 5641 5640 5642 5645 5646 5647 5648 5649 5649 5649 5650 5649 5647 5644
5683 5678 5673 5670 5665 5662 5658 5655 5652 5649 5645 5643 5640 5638 5635 5631 5629 5625 5624 5627 5628 5628 5628 5629 5628 5626 5628 5631 5634 5637 5636 5638 5641 5642 5643 5643 5644 5644 5644 5645 5645 5645 5642
5684 5679 5675 5672 5669 5665 5661 5658 5655 5652 5649 5648 5645 5644 5641 5637 5631 5629 5626 5626 5625 5628 5628 5628 5627 5625 5626 5628 5631 5630 5632 5634 5638 5638 5638 5638 5638 5638 5638 5639 5639 5638 5639
5685 5681 5678 5675 5671 5668 5664 5662 5659 5656 5654 5652 5649 5647 5645 5642 5638 5632 5630 5628 5627 5629 5628 5624 5624 5624 5625 5628 5626 5628 5630 5634 5635 5635 5634 5633 5633 5633 5633 5632 5631 5630 5630
5687 5684 5682 5679 5676 5673 5668 5665 5662 5660 5658 5655 5653 5650 5648 5645 5643 5640 5637 5636 5632 5631 5631 5627 5624 5624 5625 5625 5626 5629 5631 5632 5633 5633 5632 5630 5629 5629 5628 5628 5626 5625 5623
5690 5687 5684 5681 5678 5674 5672 5668 5666 5663 5660 5655 5654 5652 5649 5648 5643 5635 5634 5636 5635 5633 5630 5631 5631 5630 5630 5630 5630 5630 5630 5631 5630 5630 5630 5628 5627 5626 5625 5625 5624 5623 5623
5690 5689 5686 5682 5679 5676 5673 5672 5667 5662 5659 5654 5651 5648 5649 5644 5640 5636 5633 5631 5630 5629 5630 5633 5633 5632 5631 5631 5631 5631 5631 5630 5630 5630 5628 5628 5626 5625 5624 5623 5623 5623 5622
5687 5687 5685 5682 5680 5677 5674 5672 5671 5667 5660 5656 5653 5650 5647 5645 5642 5638 5635 5633 5631 5630 5633 5636 5636 5635 5633 5633 5632 5632 5632 5631 5630 5629 5627 5627 5626 5625 5624 5623 5622 5622 5621
5685 5684 5681 5680 5678 5677 5676 5674 5671 5669 5668 5667 5661 5655 5651 5647 5644 5640 5636 5633 5637 5636 5638 5639 5639 5638 5636 5635 5634 5633 5632 5631 5629 5628 5628 5627 5626 5625 5624 5623 5622 5621 5620
5679 5679 5678 5678 5677 5676 5675 5673 5671 5670 5668 5667 5666 5662 5654 5650 5645 5641 5637 5639 5643 5644 5644 5642 5641 5640 5639 5637 5636 5634 5633 5631 5630 5629 5628 5627 5626 5625 5624 5623 5622 5618 5618
5670 5669 5667 5670 5672 5672 5672 5671 5670 5669 5668 5667 5666 5665 5661 5653 5652 5650 5644 5645 5646 5646 5646 5645 5643 5642 5640 5638 5637 5635 5634 5633 5631 5630 5629 5628 5627 5625 5624 5622 5622 5619 5618
5660 5662 5660 5661 5664 5666 5666 5667 5667 5667 5666 5666 5666 5666 5661 5658 5657 5656 5655 5652 5650 5649 5648 5647 5645 5643 5641 5640 5638 5637 5636 5635 5633 5631 5630 5629 5627 5625 5624 5623 5622 5620 5619
5646 5649 5651 5653 5654 5656 5657 5659 5660 5661 5662 5662 5663 5663 5656 5653 5656 5656 5656 5655 5654 5652 5651 5649 5647 5645 5643 5641 5639 5638 5637 5636 5635 5633 5631 5630 5628 5626 5624 5622 5621 5620 5618
5631 5633 5636 5639 5641 5642 5643 5646 5648 5650 5652 5654 5655 5656 5655 5653 5653 5654 5655 5655 5654 5653 5651 5648 5647 5646 5644 5642 5641 5639 5638 5637 5636 5634 5631 5629 5627 5625 5624 5622 5620 5618 5617
5614 5616 5618 5621 5624 5626 5628 5630 5633 5635 5638 5640 5643 5645 5646 5648 5648 5650 5651 5652 5651 5651 5649 5648 5646 5646 5644 5642 5640 5639 5637 5636 5634 5632 5630 5628 5626 5625 5623 5621 5620 5618 5616
5597 5598 5600 5601 5603 5605 5608 5610 5613 5616 5619 5622 5625 5628 5632 5635 5637 5640 5642 5644 5644 5645 5646 5645 5644 5644 5643 5641 5639 5638 5636 5633 5630 5629 5627 5625 5624 5622 5621 5619 5618 5616 5614
5580 5580 5581 5581 5582 5583 5585 5587 5590 5592 5594 5598 5602 5606 5611 5615 5619 5624 5628 5631 5634 5636 5637 5639 5640 5640 5640 5639 5638 5636 5633 5629 5626 5623 5622 5621 5620 5619 5618 5617 5615 5614 5612